SBONWEB Weather Reports


Display with metric or nautical units.
time (UTC)temp
F
wind
direction
speed
MPH
gust
MPH
rain 1hr
in
rain 24hr
in
rain mn
in
humidity
%
barometer
mb
20221004033605 56 30 0.0 1.0 0.00 0.00 0.00 91 1021.0
20221004032917 56 35 0.0 1.0 0.00 0.00 0.00 91 1021.0
20221004031804 56 35 0.0 1.0 0.00 0.00 0.00 92 1021.0
20221004030903 56 0 0.0 0.0 0.00 0.00 0.00 93 1021.0
20221004030214 56 0 0.0 0.0 0.00 0.00 0.00 93 1021.0
20221004025405 56 47 0.0 2.0 0.00 0.00 0.00 94 1021.0
20221004024503 55 0 0.0 0.0 0.00 0.00 0.00 95 1021.0
20221004023604 55 136 0.0 1.0 0.00 0.00 0.00 95 1021.1
20221004022703 54 0 0.0 0.0 0.00 0.00 0.00 95 1021.1
20221004021803 54 0 0.0 0.0 0.00 0.00 0.00 95 1021.1
20221004020903 54 136 0.0 1.0 0.00 0.00 0.00 95 1021.1
20221004020004 54 136 0.0 1.0 0.00 0.00 0.00 95 1021.1
20221004015403 54 0 0.0 0.0 0.00 0.00 0.00 94 1021.0
20221004014504 54 0 0.0 0.0 0.00 0.00 0.00 94 1021.1
20221004013816 54 0 0.0 0.0 0.00 0.00 0.00 94 1021.2
20221004012704 55 0 0.0 0.0 0.00 0.00 0.00 94 1021.2
20221004011803 55 0 0.0 0.0 0.00 0.00 0.00 94 1021.3
20221004010903 55 0 0.0 0.0 0.00 0.00 0.00 93 1021.2
20221004010004 55 136 0.0 1.0 0.00 0.00 0.00 95 1021.4
20221004005403 55 136 0.0 1.0 0.00 0.00 0.00 95 1021.4
20221004004503 55 163 0.0 1.0 0.00 0.00 0.00 95 1021.2
20221004003604 55 160 0.0 1.0 0.00 0.00 0.00 95 1021.4
20221004002703 55 160 0.0 1.0 0.00 0.00 0.00 94 1021.4
20221004001803 55 0 0.0 0.0 0.00 0.00 0.00 94 1021.4
20221004000903 55 0 0.0 0.0 0.00 0.00 0.00 94 1021.3
20221004000003 55 0 0.0 0.0 0.00 0.00 0.00 94 1021.3
20221003235403 55 159 0.0 1.0 0.00 0.00 0.00 94 1021.3
20221003234503 55 159 0.0 1.0 0.00 0.00 0.00 94 1021.2
20221003233603 55 159 0.0 1.0 0.00 0.00 0.00 94 1021.3
20221003232704 55 0 0.0 0.0 0.00 0.00 0.00 94 1021.2
20221003231804 55 0 0.0 0.0 0.00 0.00 0.00 94 1021.2
20221003230903 55 0 0.0 0.0 0.00 0.00 0.00 93 1021.2
20221003230004 55 0 0.0 0.0 0.00 0.00 0.00 93 1021.2
20221003225404 55 0 0.0 0.0 0.00 0.00 0.00 93 1021.2
20221003224503 55 0 0.0 0.0 0.00 0.00 0.00 94 1021.3
20221003223603 55 0 0.0 0.0 0.00 0.00 0.00 94 1021.2
20221003222703 55 159 0.0 1.0 0.00 0.00 0.00 93 1021.0
20221003221804 55 159 0.0 1.0 0.00 0.00 0.00 93 1021.0
20221003220904 56 0 0.0 0.0 0.00 0.00 0.00 92 1021.0
20221003220009 56 0 0.0 0.0 0.00 0.00 0.00 92 1021.0
20221003215614 56 0 0.0 0.0 0.00 0.00 0.00 92 1021.0
20221003214716 56 159 0.0 1.0 0.00 0.00 0.00 92 1020.9
20221003213814 56 159 0.0 1.0 0.00 0.00 0.00 91 1020.9
20221003212704 56 159 0.0 1.0 0.00 0.00 0.00 92 1020.7
20221003211805 56 159 0.0 1.0 0.00 0.00 0.00 91 1020.7
20221003210903 56 159 0.0 1.0 0.00 0.00 0.00 91 1020.7
20221003210004 56 0 0.0 0.0 0.00 0.00 0.00 91 1020.6
20221003205615 57 0 0.0 0.0 0.00 0.00 0.00 91 1020.6
20221003204506 57 159 0.0 1.0 0.00 0.00 0.00 90 1020.6
20221003203604 57 159 0.0 1.0 0.00 0.00 0.00 90 1020.5
20221003202917 57 159 0.0 1.0 0.00 0.00 0.00 90 1020.5
20221003202227 57 159 0.0 1.0 0.00 0.00 0.00 89 1020.5
20221003201116 57 152 0.0 1.0 0.00 0.00 0.00 89 1020.4
20221003200432 58 152 0.0 1.0 0.00 0.00 0.00 89 1020.2
20221003195406 58 152 0.0 1.0 0.00 0.00 0.00 88 1020.1
20221003194503 58 0 0.0 0.0 0.00 0.00 0.00 89 1020.1
20221003193604 58 0 0.0 0.0 0.00 0.00 0.00 88 1020.0
20221003192704 58 152 0.0 1.0 0.00 0.00 0.00 88 1020.0
20221003192015 59 152 0.0 1.0 0.00 0.00 0.00 88 1019.8
20221003191117 59 0 0.0 0.0 0.00 0.00 0.00 87 1019.6
20221003190003 59 0 0.0 0.0 0.00 0.00 0.00 87 1019.7
20221003185616 59 0 0.0 0.0 0.00 0.00 0.00 86 1019.6
20221003184504 60 0 0.0 0.0 0.00 0.00 0.00 85 1019.5
20221003183816 60 0 0.0 0.0 0.00 0.00 0.00 85 1019.4
20221003182703 61 0 0.0 0.0 0.00 0.00 0.00 84 1019.4
20221003181803 61 0 0.0 0.0 0.00 0.00 0.00 84 1019.4
20221003180904 62 0 0.0 0.0 0.00 0.00 0.00 83 1019.1
20221003180004 62 0 0.0 0.0 0.00 0.00 0.00 82 1019.0
20221003175403 63 0 0.0 0.0 0.00 0.00 0.00 82 1019.0
20221003174504 63 0 0.0 0.0 0.00 0.00 0.00 81 1018.8
20221003173816 64 0 0.0 0.0 0.00 0.00 0.00 80 1018.8
20221003172704 64 0 0.0 0.0 0.00 0.00 0.00 78 1018.7
20221003172016 65 0 0.0 0.0 0.00 0.00 0.00 77 1018.6
20221003170904 66 0 0.0 0.0 0.00 0.00 0.00 76 1018.6
20221003170216 66 0 0.0 0.0 0.00 0.00 0.00 74 1018.4
20221003165403 68 0 0.0 0.0 0.00 0.00 0.00 72 1018.4
20221003164503 69 152 0.0 1.0 0.00 0.00 0.00 70 1018.3
20221003163603 70 152 0.0 1.0 0.00 0.00 0.00 67 1018.3
20221003162705 71 151 0.0 1.0 0.00 0.00 0.00 62 1018.2
20221003161803 73 150 0.0 1.0 0.00 0.00 0.00 57 1018.2
20221003160904 74 150 0.0 1.0 0.00 0.00 0.00 54 1018.3
20221003160429 75 150 0.0 1.0 0.00 0.00 0.00 53 1018.2
20221003155613 76 150 0.0 1.0 0.00 0.00 0.00 54 1018.3
20221003154715 76 164 0.0 3.0 0.00 0.00 0.00 52 1018.4
20221003153604 76 157 0.0 2.0 0.00 0.00 0.00 50 1018.3
20221003152704 76 142 0.0 1.0 0.00 0.00 0.00 49 1018.2
20221003152017 76 133 1.0 3.0 0.00 0.00 0.00 49 1018.3
20221003151115 76 149 1.0 4.0 0.00 0.00 0.00 49 1018.3
20221003150004 76 167 1.0 4.0 0.00 0.00 0.00 49 1018.2
20221003145613 76 170 1.0 3.0 0.00 0.00 0.00 49 1018.3
20221003144503 76 210 1.0 4.0 0.00 0.00 0.00 50 1018.2
20221003143603 76 153 2.0 5.0 0.00 0.00 0.00 52 1018.4
20221003142703 76 133 1.0 5.0 0.00 0.00 0.00 51 1018.4
20221003141804 76 210 1.0 5.0 0.00 0.00 0.00 51 1018.5
20221003141115 76 261 1.0 4.0 0.00 0.00 0.00 51 1018.4
20221003140218 76 158 1.0 5.0 0.00 0.00 0.00 50 1018.7
20221003135403 76 176 2.0 5.0 0.00 0.00 0.00 49 1018.7
20221003134503 75 140 2.0 7.0 0.00 0.00 0.00 50 1018.7
20221003133814 76 155 2.0 6.0 0.00 0.00 0.00 49 1018.7
20221003132703 76 140 1.0 5.0 0.00 0.00 0.00 51 1018.9
20221003131803 76 174 2.0 5.0 0.00 0.00 0.00 49 1018.9
20221003131116 76 133 1.0 5.0 0.00 0.00 0.00 51 1018.9
20221003130213 76 160 2.0 5.0 0.00 0.00 0.00 52 1018.9
20221003125403 76 167 1.0 5.0 0.00 0.00 0.00 53 1019.0
20221003124503 76 182 2.0 6.0 0.00 0.00 0.00 51 1019.1
20221003123814 76 193 2.0 6.0 0.00 0.00 0.00 51 1019.1
20221003122703 76 229 1.0 5.0 0.00 0.00 0.00 46 1019.2
20221003122014 75 168 2.0 6.0 0.00 0.00 0.00 52 1019.4
20221003120903 74 148 2.0 8.0 0.00 0.00 0.00 58 1019.4
20221003120214 74 203 3.0 7.0 0.00 0.00 0.00 57 1019.4
20221003115615 74 144 2.0 7.0 0.00 0.00 0.00 57 1019.4
20221003114503 74 125 2.0 8.0 0.00 0.00 0.00 60 1019.5
20221003113603 73 125 4.0 8.0 0.00 0.00 0.00 61 1019.5
20221003112703 73 125 3.0 10.0 0.00 0.00 0.00 60 1019.6
20221003111803 73 133 2.0 9.0 0.00 0.00 0.00 61 1019.5
20221003110903 73 123 2.0 6.0 0.00 0.00 0.00 60 1019.6
20221003110214 72 124 2.0 4.0 0.00 0.00 0.00 62 1019.7
20221003105403 72 122 2.0 8.0 0.00 0.00 0.00 61 1019.7
20221003104713 72 132 2.0 6.0 0.00 0.00 0.00 61 1019.8
20221003103603 72 116 2.0 7.0 0.00 0.00 0.00 61 1019.8
20221003102704 71 129 1.0 6.0 0.00 0.00 0.00 62 1019.9
20221003101803 71 42 1.0 3.0 0.00 0.00 0.00 63 1020.0
20221003100903 71 94 1.0 3.0 0.00 0.00 0.00 64 1020.0
20221003100004 70 123 1.0 4.0 0.00 0.00 0.00 65 1020.2
20221003095404 69 147 1.0 4.0 0.00 0.00 0.00 66 1020.3
20221003094503 69 170 1.0 3.0 0.00 0.00 0.00 66 1020.3
20221003093816 68 215 1.0 3.0 0.00 0.00 0.00 68 1020.3
20221003092704 68 151 2.0 4.0 0.00 0.00 0.00 69 1020.3
20221003092016 68 110 2.0 4.0 0.00 0.00 0.00 69 1020.3
20221003091113 68 105 1.0 5.0 0.00 0.00 0.00 68 1020.4
20221003090003 67 119 2.0 7.0 0.00 0.00 0.00 71 1020.4
20221003085403 67 119 2.0 5.0 0.00 0.00 0.00 71 1020.4
20221003084503 67 122 1.0 5.0 0.00 0.00 0.00 72 1020.4
20221003083604 66 131 2.0 4.0 0.00 0.00 0.00 77 1020.5
20221003082703 66 129 1.0 5.0 0.00 0.00 0.00 74 1020.5
20221003081803 66 118 1.0 4.0 0.00 0.00 0.00 74 1020.4
20221003080904 65 130 1.0 4.0 0.00 0.00 0.00 76 1020.5
20221003080003 65 119 1.0 4.0 0.00 0.00 0.00 77 1020.5
20221003075403 64 123 1.0 3.0 0.00 0.00 0.00 79 1020.4
20221003074503 63 119 1.0 3.0 0.00 0.00 0.00 80 1020.3
20221003073604 62 98 1.0 2.0 0.00 0.00 0.00 82 1020.2
20221003072703 62 93 2.0 6.0 0.00 0.00 0.00 86 1019.9
20221003071803 60 61 2.0 6.0 0.00 0.00 0.00 89 1019.8
20221003070903 59 66 3.0 6.0 0.00 0.00 0.00 91 1019.8
20221003070003 58 54 2.0 9.0 0.00 0.00 0.00 92 1019.8
20221003065403 58 62 2.0 6.0 0.00 0.00 0.00 94 1019.8
20221003064504 56 62 1.0 6.0 0.00 0.00 0.00 97 1019.7
20221003063603 55 55 1.0 4.0 0.00 0.00 0.00 100 1019.8
20221003062915 55 41 1.0 4.0 0.00 0.00 0.00 100 1019.8
20221003061803 53 73 1.0 3.0 0.00 0.00 0.00 100 1019.7
20221003060903 52 94 1.0 3.0 0.00 0.00 0.00 100 1019.6
20221003060003 51 96 0.0 3.0 0.00 0.00 0.00 100 1019.6
20221003055614 50 65 0.0 1.0 0.00 0.00 0.00 97 1019.5
20221003054716 50 42 0.0 2.0 0.00 0.00 0.00 96 1019.5
20221003053603 50 0 0.0 0.0 0.00 0.00 0.00 96 1019.4
20221003052703 50 307 0.0 1.0 0.00 0.00 0.00 96 1019.1
20221003051805 50 0 0.0 0.0 0.00 0.00 0.00 95 1018.9
20221003050904 50 337 0.0 1.0 0.00 0.00 0.00 95 1018.9
20221003050213 50 341 0.0 1.0 0.00 0.00 0.00 95 1018.8
20221003045403 50 0 0.0 0.0 0.00 0.00 0.00 96 1018.8
20221003044503 50 339 0.0 1.0 0.00 0.00 0.00 95 1018.7
20221003043606 51 350 0.0 1.0 0.00 0.00 0.00 96 1018.7
20221003042917 51 0 0.0 0.0 0.00 0.00 0.00 97 1018.6
20221003041803 51 350 0.0 1.0 0.00 0.00 0.00 97 1018.6
20221003040903 50 337 0.0 2.0 0.00 0.00 0.00 97 1018.6
20221003040004 50 247 0.0 1.0 0.00 0.00 0.00 96 1018.5
20221003035615 50 247 0.0 1.0 0.00 0.00 0.00 96 1018.6
20221003034503 50 0 0.0 0.0 0.00 0.00 0.00 96 1018.6